• In Deutschland
  • Länderverzeichnis
  • Für 7 Tage
  • Wassertemperatur
  • Satellitenkarten
  • Wetterkarte
  • Widgets
  • user-avatar
    Anmelden

    Stündliche Wetter Mayrhofen

    Heute, 27 Juni, Dienstag

    Zeit Temperatur Niederschläge Wind Luftdruck Luftfeuchtigkeit
    00:00 +12°C° 0,8 mm 1 m/S 617 mmHg 95%
    01:00 +10°C° 0 mm 2 m/S 617 mmHg 96%
    02:00 +11°C° 0,6 mm 1 m/S 617 mmHg 96%
    03:00 +11°C° 0,6 mm 1 m/S 617 mmHg 96%
    04:00 +11°C° 0,6 mm 1 m/S 617 mmHg 97%
    05:00 +12°C° 0,4 mm 1 m/S 617 mmHg 95%
    06:00 +12°C° 0,4 mm 1 m/S 617 mmHg 93%
    07:00 +13°C° 0,4 mm 1 m/S 617 mmHg 91%
    08:00 +15°C° 0,3 mm 1 m/S 618 mmHg 83%
    09:00 +16°C° 0,3 mm 1 m/S 618 mmHg 75%
    10:00 +18°C° 0,3 mm 2 m/S 619 mmHg 67%
    11:00 +18°C° 1 mm 2 m/S 618 mmHg 68%
    12:00 +18°C° 1 mm 2 m/S 618 mmHg 69%
    13:00 +18°C° 0 mm 2 m/S 618 mmHg 70%
    14:00 +18°C° 0,7 mm 2 m/S 618 mmHg 70%
    15:00 +18°C° 0,7 mm 2 m/S 618 mmHg 69%
    16:00 +18°C° 0,7 mm 2 m/S 617 mmHg 69%
    17:00 +17°C° 0,4 mm 2 m/S 617 mmHg 74%
    18:00 +17°C° 0,4 mm 2 m/S 616 mmHg 79%
    19:00 +16°C° 0,4 mm 1 m/S 616 mmHg 84%
    20:00 +14°C° 0,1 mm 2 m/S 615 mmHg 88%
    21:00 +13°C° 0,1 mm 2 m/S 615 mmHg 91%
    22:00 +10°C° 0,1 mm 2 m/S 614 mmHg 95%
    23:00 +10°C° 0 mm 2 m/S 614 mmHg 95%

    Morgen, 28 Juni, Mittwoch

    Zeit Temperatur Niederschläge Wind Luftdruck Luftfeuchtigkeit
    00:00 +10°C° 0 mm 2 m/S 613 mmHg 95%
    01:00 +10°C° 0 mm 2 m/S 613 mmHg 95%
    02:00 +10°C° 0 mm 2 m/S 613 mmHg 95%
    03:00 +9°C° 0 mm 2 m/S 612 mmHg 94%
    04:00 +9°C° 0 mm 2 m/S 612 mmHg 94%
    05:00 +10°C° 0,1 mm 2 m/S 612 mmHg 92%
    06:00 +12°C° 0,1 mm 2 m/S 613 mmHg 89%
    07:00 +13°C° 0,1 mm 2 m/S 613 mmHg 87%
    08:00 +14°C° 0,4 mm 2 m/S 613 mmHg 82%
    09:00 +15°C° 0,4 mm 2 m/S 613 mmHg 78%
    10:00 +16°C° 0,4 mm 2 m/S 614 mmHg 74%
    11:00 +17°C° 0,8 mm 2 m/S 614 mmHg 72%
    12:00 +17°C° 0,8 mm 3 m/S 613 mmHg 71%
    13:00 +17°C° 0,8 mm 3 m/S 613 mmHg 69%
    14:00 +17°C° 0,9 mm 3 m/S 613 mmHg 70%
    15:00 +17°C° 0,9 mm 2 m/S 612 mmHg 70%
    16:00 +17°C° 0,9 mm 2 m/S 612 mmHg 71%
    17:00 +15°C° 1,6 mm 2 m/S 611 mmHg 79%
    18:00 +14°C° 1,6 mm 2 m/S 610 mmHg 87%
    19:00 +12°C° 1,6 mm 1 m/S 609 mmHg 95%
    20:00 +12°C° 1,8 mm 1 m/S 609 mmHg 96%
    21:00 +11°C° 1,8 mm 1 m/S 608 mmHg 96%
    22:00 +10°C° 1,8 mm 1 m/S 608 mmHg 97%
    23:00 +9°C° 0,6 mm 1 m/S 608 mmHg 97%

    übermorgen, 29 Juni, Donnerstag

    Zeit Temperatur Niederschläge Wind Luftdruck Luftfeuchtigkeit
    00:00 +9°C° 0,6 mm 1 m/S 607 mmHg 97%
    01:00 +9°C° 0,6 mm 1 m/S 607 mmHg 97%
    02:00 +8°C° 0,5 mm 1 m/S 607 mmHg 97%
    03:00 +8°C° 0,5 mm 1 m/S 607 mmHg 98%
    04:00 +8°C° 0,5 mm 1 m/S 606 mmHg 98%
    05:00 +8°C° 0,6 mm 1 m/S 607 mmHg 96%
    06:00 +9°C° 0,6 mm 1 m/S 608 mmHg 95%
    07:00 +10°C° 0,6 mm 1 m/S 608 mmHg 93%
    08:00 +10°C° 1 mm 1 m/S 609 mmHg 91%
    09:00 +11°C° 1 mm 1 m/S 609 mmHg 89%
    10:00 +11°C° 1 mm 1 m/S 610 mmHg 88%
    11:00 +12°C° 1 mm 1 m/S 610 mmHg 86%
    12:00 +12°C° 1 mm 1 m/S 610 mmHg 83%
    13:00 +13°C° 1 mm 1 m/S 610 mmHg 81%
    14:00 +13°C° 0,9 mm 1 m/S 610 mmHg 82%
    15:00 +13°C° 0,9 mm 1 m/S 610 mmHg 82%
    16:00 +13°C° 0,9 mm 1 m/S 610 mmHg 83%
    17:00 +12°C° 1 mm 1 m/S 611 mmHg 86%
    18:00 +11°C° 1 mm 1 m/S 611 mmHg 90%
    19:00 +10°C° 1 mm 1 m/S 611 mmHg 93%
    20:00 +9°C° 1,5 mm 1 m/S 611 mmHg 95%
    21:00 +8°C° 1,5 mm 1 m/S 611 mmHg 96%
    22:00 +7°C° 1,5 mm 1 m/S 611 mmHg 98%
    23:00 +7°C° 0,7 mm 1 m/S 611 mmHg 97%

    30 Juni, Freitag

    Zeit Temperatur Niederschläge Wind Luftdruck Luftfeuchtigkeit
    00:00 +7°C° 0,7 mm 1 m/S 611 mmHg 97%
    01:00 +6°C° 0,7 mm 1 m/S 611 mmHg 97%
    02:00 +6°C° 1 mm 1 m/S 611 mmHg 97%
    03:00 +6°C° 1 mm 1 m/S 611 mmHg 97%
    04:00 +6°C° 1 mm 1 m/S 611 mmHg 97%
    05:00 +6°C° 0,4 mm 1 m/S 612 mmHg 95%
    06:00 +7°C° 0,4 mm 1 m/S 612 mmHg 94%
    07:00 +8°C° 0,4 mm 1 m/S 613 mmHg 93%
    08:00 +9°C° 0,2 mm 1 m/S 613 mmHg 86%
    09:00 +10°C° 0,2 mm 1 m/S 614 mmHg 80%
    10:00 +10°C° 0,2 mm 2 m/S 615 mmHg 74%
    11:00 +12°C° 0,4 mm 2 m/S 615 mmHg 72%
    12:00 +13°C° 0,4 mm 2 m/S 615 mmHg 69%
    13:00 +13°C° 0,4 mm 2 m/S 616 mmHg 67%
    14:00 +13°C° 0,9 mm 2 m/S 616 mmHg 69%
    15:00 +12°C° 0,9 mm 2 m/S 615 mmHg 71%
    16:00 +12°C° 0,9 mm 2 m/S 615 mmHg 72%
    17:00 +10°C° 0,7 mm 2 m/S 615 mmHg 77%
    18:00 +9°C° 0,7 mm 2 m/S 615 mmHg 81%
    19:00 +9°C° 0,7 mm 1 m/S 615 mmHg 86%
    20:00 +8°C° 0,5 mm 1 m/S 615 mmHg 89%
    21:00 +7°C° 0,5 mm 1 m/S 615 mmHg 92%
    22:00 +6°C° 0,5 mm 1 m/S 614 mmHg 95%
    23:00 +5°C° 0,1 mm 1 m/S 614 mmHg 95%

    1 Juli, Samstag

    Zeit Temperatur Niederschläge Wind Luftdruck Luftfeuchtigkeit
    00:00 +4°C° 0,1 mm 1 m/S 613 mmHg 95%
    01:00 +3°C° 0,1 mm 1 m/S 613 mmHg 94%
    02:00 +3°C° 0 mm 1 m/S 613 mmHg 94%
    03:00 +3°C° 0 mm 1 m/S 613 mmHg 93%
    04:00 +3°C° 0 mm 1 m/S 612 mmHg 92%
    05:00 +5°C° 0 mm 1 m/S 613 mmHg 87%
    06:00 +6°C° 0 mm 0 m/S 614 mmHg 81%
    07:00 +8°C° 0 mm 0 m/S 615 mmHg 75%
    08:00 +10°C° 0 mm 0 m/S 616 mmHg 66%
    09:00 +13°C° 0 mm 1 m/S 617 mmHg 57%
    10:00 +15°C° 0 mm 1 m/S 618 mmHg 48%
    11:00 +15°C° 0,3 mm 1 m/S 618 mmHg 52%
    12:00 +15°C° 0,3 mm 1 m/S 618 mmHg 55%
    13:00 +15°C° 0,3 mm 1 m/S 618 mmHg 59%
    14:00 +15°C° 1,1 mm 1 m/S 618 mmHg 64%
    15:00 +14°C° 1,1 mm 1 m/S 617 mmHg 69%
    16:00 +13°C° 1,1 mm 1 m/S 617 mmHg 73%
    17:00 +12°C° 1,2 mm 1 m/S 617 mmHg 80%
    18:00 +11°C° 1,2 mm 1 m/S 617 mmHg 86%
    19:00 +10°C° 1,2 mm 1 m/S 616 mmHg 92%
    20:00 +9°C° 0,4 mm 1 m/S 616 mmHg 94%
    21:00 +8°C° 0,4 mm 1 m/S 616 mmHg 95%
    22:00 +7°C° 0,4 mm 1 m/S 616 mmHg 96%
    23:00 +6°C° 0 mm 1 m/S 616 mmHg 96%

    2 Juli, Sonntag

    Zeit Temperatur Niederschläge Wind Luftdruck Luftfeuchtigkeit
    00:00 +6°C° 0 mm 1 m/S 616 mmHg 96%
    01:00 +5°C° 0 mm 1 m/S 616 mmHg 96%
    02:00 +5°C° 0,1 mm 1 m/S 616 mmHg 96%
    03:00 +5°C° 0,1 mm 1 m/S 616 mmHg 96%
    04:00 +5°C° 0,1 mm 1 m/S 616 mmHg 96%
    05:00 +6°C° 0,7 mm 1 m/S 617 mmHg 95%
    06:00 +7°C° 0,7 mm 1 m/S 617 mmHg 94%
    07:00 +7°C° 0,7 mm 1 m/S 618 mmHg 93%
    08:00 +8°C° 0,3 mm 1 m/S 618 mmHg 90%
    09:00 +9°C° 0,3 mm 1 m/S 619 mmHg 87%
    10:00 +9°C° 0,3 mm 1 m/S 619 mmHg 84%
    11:00 +11°C° 0,1 mm 1 m/S 619 mmHg 77%
    12:00 +12°C° 0,1 mm 2 m/S 620 mmHg 71%
    13:00 +13°C° 0,1 mm 2 m/S 620 mmHg 65%
    14:00 +14°C° 0,1 mm 2 m/S 620 mmHg 64%
    15:00 +14°C° 0,1 mm 2 m/S 620 mmHg 64%
    16:00 +14°C° 0,1 mm 2 m/S 620 mmHg 63%
    17:00 +13°C° 0 mm 2 m/S 620 mmHg 70%
    18:00 +12°C° 0 mm 2 m/S 620 mmHg 76%
    19:00 +11°C° 0 mm 1 m/S 619 mmHg 83%
    20:00 +10°C° 0,2 mm 1 m/S 619 mmHg 86%
    21:00 +9°C° 0,2 mm 1 m/S 619 mmHg 89%
    22:00 +8°C° 0,2 mm 1 m/S 619 mmHg 92%
    23:00 +8°C° 0,3 mm 1 m/S 619 mmHg 93%
    Mehr zeigen